Content
SEND FEEDBACK

Daily
Averages
Monthly
Summary
United States of America

SOUTH LAKE TAHOE - AIRPORT, CALIFORNIA


Home > North America > United States > California
Elevation: 6250 feet     Latitude: 38 54N     Longitude: 120 00W

WEATHER
 
SELECT A DAY
Number of Records: 178,820;   Date Range: 1/1/95 - 12/24/14
 
SHARE

PRINT THIS DATA

[ ← Previous Day ]
WEATHER ALMANAC - JUNE 21, 2013
[ Next Day → ]
[ °C ]   °F
Weather ElementAverageHighLow
Temperature52.5 °F69.1 °F (2:53 pm)32 °F (4:53 am)
Dewpoint28.7 °F34 °F (11:53 am)24.1 °F (2:53 pm)
Humidity45.1 %79 % (4:53 am)18 % (2:53 pm)
Barometer30.02 in30.05 in (6:53 am)29.99 in (11:53 am)
Wind Speed3.1 mph11.5 mph (1:53 pm)
Wind Gust16.1 mph (1:53 pm)
Weather ElementAverage
Visibility10 mi
Wind DirectionNE (44.3 °)

Weather ElementTotal
Precipitation---
Heating Degree Days14.5 (Base 65)
Growing Degree Days0.5 (Base 50)
Averaged from 23 records on June 21, 2013
WEATHER CONDITIONS BREAKOUT
WIND DIRECTION BREAKOUT
WEATHER BY HOUR - JUNE 21, 2013
[ °C ]   °F
Local TimeTemperatureDewpointHumidityBarometerVisibilityWind DirectionWind SpeedGust SpeedPrecipitationEventsConditions
1:53 AM37.0 °F28.0 °F70 %30.03 in10.0 miCalmClear
2:53 AM36.0 °F28.0 °F73 %30.03 in10.0 miSouth (190°)4.6 mphClear
3:53 AM34.0 °F25.0 °F70 %30.02 in10.0 miCalmClear
4:53 AM32.0 °F26.1 °F79 %30.02 in10.0 miSouth (190°)3.5 mphClear
5:53 AM32.0 °F25.0 °F75 %30.04 in10.0 miSouth (190°)4.6 mphClear
6:53 AM36.0 °F27.0 °F70 %30.05 in10.0 miSouth (190°)3.5 mphClear
7:53 AM46.0 °F30.9 °F56 %30.03 in10.0 miCalmClear
8:53 AM54.0 °F30.9 °F41 %30.00 in10.0 miCalmClear
9:53 AM57.0 °F30.0 °F36 %30.00 in10.0 miVariable5.8 mphClear
10:53 AM60.1 °F33.1 °F36 %30.00 in10.0 miNNE (20°)9.2 mphClear
11:53 AM63.0 °F34.0 °F34 %29.99 in10.0 miNNE (20°)8.1 mphClear
12:53 PM64.9 °F33.1 °F31 %30.00 in10.0 miVariable3.5 mphClear
1:53 PM68.0 °F27.0 °F21 %29.99 in10.0 miNNE (20°)11.5 mph16.1 mphClear
2:53 PM69.1 °F24.1 °F18 %29.99 in10.0 miVariable3.5 mphClear
3:53 PM66.9 °F25.0 °F21 %30.01 in10.0 miVariable4.6 mphClear
4:53 PM68.0 °F28.0 °F22 %30.01 in10.0 miVariable3.5 mphClear
5:53 PM66.9 °F25.0 °F21 %30.00 in10.0 miCalmClear
6:53 PM64.0 °F26.1 °F24 %30.01 in10.0 miSSW (200°)5.8 mphClear
7:53 PM57.9 °F30.9 °F36 %30.01 in10.0 miCalmClear
8:53 PM53.1 °F30.9 °F43 %30.01 in10.0 miCalmClear
9:53 PM48.9 °F30.0 °F48 %30.03 in10.0 miCalmClear
10:53 PM48.0 °F32.0 °F54 %30.04 in10.0 miCalmClear
11:53 PM45.0 °F30.9 °F58 %30.04 in10.0 miCalmClear
Hourly data recorded from KTVL, located miles away from South Lake Tahoe - Airport, California







STORIES FROM OUR PARTNERS